TimeEDT,TemperatureF,Dew PointF,Humidity,Sea Level PressureIn,VisibilityMPH,Wind Direction,Wind SpeedMPH,Gust SpeedMPH,PrecipitationIn,Events,Conditions,WindDirDegrees,DateUTC
12:53 AM,60.1,51.1,72,29.77,10.0,Calm,Calm,-,N/A,,Clear,0,2011-10-27 04:53:00
1:53 AM,60.1,51.1,72,29.75,10.0,South,5.8,-,N/A,,Clear,190,2011-10-27 05:53:00
2:53 AM,62.1,50.0,65,29.74,10.0,SSW,4.6,-,N/A,,Clear,200,2011-10-27 06:53:00
3:53 AM,60.8,50.0,68,29.74,10.0,SSW,3.5,-,N/A,,Clear,200,2011-10-27 07:53:00
4:53 AM,60.1,50.0,69,29.72,10.0,South,4.6,-,N/A,,Clear,180,2011-10-27 08:53:00
5:53 AM,61.0,50.0,67,29.71,10.0,SSE,3.5,-,N/A,,Partly Cloudy,150,2011-10-27 09:53:00
6:53 AM,60.1,50.0,69,29.71,10.0,WSW,11.5,-,N/A,,Overcast,240,2011-10-27 10:53:00
7:17 AM,59.0,50.0,72,29.72,10.0,SW,11.5,-,N/A,,Mostly Cloudy,220,2011-10-27 11:17:00
7:53 AM,57.9,50.0,75,29.71,10.0,SW,11.5,-,N/A,,Clear,220,2011-10-27 11:53:00
8:40 AM,60.8,50.0,68,29.73,10.0,SW,11.5,-,N/A,,Clear,230,2011-10-27 12:40:00
8:53 AM,60.1,50.0,69,29.71,10.0,SW,11.5,-,N/A,,Clear,230,2011-10-27 12:53:00
9:53 AM,64.0,52.0,65,29.71,10.0,South,8.1,-,N/A,,Partly Cloudy,180,2011-10-27 13:53:00
10:53 AM,68.0,51.1,55,29.68,10.0,South,10.4,-,N/A,,Mostly Cloudy,190,2011-10-27 14:53:00
11:53 AM,70.0,52.0,53,29.67,10.0,SSW,8.1,-,N/A,,Clear,210,2011-10-27 15:53:00
12:53 PM,70.0,53.1,55,29.64,10.0,SSW,5.8,-,N/A,,Clear,200,2011-10-27 16:53:00
1:53 PM,73.9,53.1,48,29.60,10.0,West,16.1,29.9,N/A,,Partly Cloudy,260,2011-10-27 17:53:00
2:53 PM,72.0,52.0,49,29.61,10.0,West,16.1,29.9,N/A,,Mostly Cloudy,260,2011-10-27 18:53:00
3:53 PM,73.0,52.0,48,29.63,10.0,West,13.8,25.3,N/A,,Mostly Cloudy,270,2011-10-27 19:53:00
4:53 PM,72.0,53.1,51,29.64,10.0,WSW,11.5,23.0,N/A,,Partly Cloudy,240,2011-10-27 20:53:00
5:53 PM,70.0,51.1,51,29.67,10.0,Variable,5.8,-,N/A,,Scattered Clouds,0,2011-10-27 21:53:00
6:53 PM,69.1,51.1,53,29.73,10.0,WNW,9.2,20.7,N/A,,Overcast,300,2011-10-27 22:53:00
7:53 PM,62.6,46.4,55,29.81,10.0,WNW,17.3,-,N/A,,Overcast,300,2011-10-27 23:53:00
8:53 PM,57.0,41.0,55,29.88,10.0,NNW,9.2,20.7,N/A,,Overcast,340,2011-10-28 00:53:00
9:53 PM,55.0,39.0,55,29.94,10.0,Variable,3.5,-,N/A,,Scattered Clouds,0,2011-10-28 01:53:00
10:53 PM,53.1,37.0,55,29.98,10.0,Variable,6.9,23.0,N/A,,Mostly Cloudy,0,2011-10-28 02:53:00
11:53 PM,52.0,35.1,53,30.00,10.0,NNW,6.9,-,N/A,,Overcast,340,2011-10-28 03:53:00